Branson, MO

1:40 PM CST on December 18, 2017 (GMT -0600)
Branson

Weather History for KBBG - November, 2012

Change the Weather History Date:

Thursday, November 1, 2012

  Actual Average (KHRO) Record (KHRO)
Temperature  
Mean Temperature 56 °F -  
Max Temperature 71 °F 65 °F 86 °F (1927)
Min Temperature 41 °F 45 °F 20 °F (1906)
Degree Days  
Heating Degree Days 9    
Growing Degree Days 6 (Base 50)    
Moisture  
Dew Point 36 °F    
Average Humidity 55    
Maximum Humidity 81    
Minimum Humidity 25    
Precipitation  
Precipitation 0.00 in - - ()
Sea Level Pressure  
Sea Level Pressure 30.01 in    
Wind  
Wind Speed 3 mph (SW)    
Max Wind Speed 10 mph    
Max Gust Speed -    
Visibility 10 miles    
Events      
Averages and records for this station are not official NWS values.
T = Trace of Precipitation, MM = Missing Value Source: NWS Daily Summary

Daily Weather History Graph

Daily Weather History Graph

Search for Another Location

Airport or City:

Trip Planner

Search our weather history database for the weather conditions in past years. The results will help you decide how hot, cold, wet, or windy it might be!

Date:

Astronomy

Nov. 01, 2012 Rise Set
Actual Time 7:36 AM CDT 6:15 PM CDT
Civil Twilight 7:09 AM CDT 6:42 PM CDT
Nautical Twilight 6:39 AM CDT 7:12 PM CDT
Astronomical Twilight 6:09 AM CDT 7:42 PM CDT
Moon 8:16 PM CDT (11/1) 10:06 AM CDT (11/1)
Length of Visible Light 11h 32m
Length of Day
10h 38m
Waning Gibbous, 93% of the Moon is Illuminated
Nov 1
Waning Gibbous
Nov 6
Last Quarter
Nov 13
New
Nov 20
First Quarter
Nov 28
Full

Hourly Weather History & Observations

Time (CDT) Temp. Windchill Dew Point Humidity Pressure Visibility Wind Dir Wind Speed Gust Speed Precip Events Conditions
12:15 AM 44.6 °F - 35.6 °F 71% 30.04 in 10.0 mi Calm Calm - N/A   Clear
12:35 AM 44.6 °F - 35.6 °F 71% 30.04 in 10.0 mi Calm Calm - N/A   Clear
12:55 AM 44.6 °F - 33.8 °F 66% 30.04 in 10.0 mi Calm Calm - N/A   Clear
1:15 AM 44.6 °F - 32.0 °F 61% 30.04 in 10.0 mi Calm Calm - N/A   Partly Cloudy
1:35 AM 46.4 °F 44.3 °F 32.0 °F 57% 30.04 in 10.0 mi SW 4.6 mph - N/A   Partly Cloudy
1:55 AM 46.4 °F 45.2 °F 35.6 °F 66% 30.04 in 10.0 mi SW 3.5 mph - N/A   Partly Cloudy
2:15 AM 46.4 °F 44.3 °F 35.6 °F 66% 30.04 in 10.0 mi SW 4.6 mph - N/A   Clear
2:35 AM 44.6 °F 43.1 °F 35.6 °F 71% 30.04 in 10.0 mi SW 3.5 mph - N/A   Clear
2:55 AM 44.6 °F 43.1 °F 35.6 °F 71% 30.04 in 10.0 mi SW 3.5 mph - N/A   Clear
3:15 AM 44.6 °F 41.4 °F 35.6 °F 71% 30.04 in 10.0 mi SW 5.8 mph - N/A   Clear
3:35 AM 44.6 °F 42.2 °F 35.6 °F 71% 30.04 in 10.0 mi SW 4.6 mph - N/A   Clear
4:15 AM 44.6 °F 43.1 °F 35.6 °F 71% 30.04 in 10.0 mi SW 3.5 mph - N/A   Clear
4:35 AM 41.0 °F - 35.6 °F 81% 30.05 in 10.0 mi Calm Calm - N/A   Clear
4:55 AM 41.0 °F 39.0 °F 35.6 °F 81% 30.04 in 10.0 mi SSW 3.5 mph - N/A   Clear
5:15 AM 44.6 °F 43.1 °F 33.8 °F 66% 30.04 in 10.0 mi SW 3.5 mph - N/A   Clear
5:35 AM 44.6 °F 42.2 °F 33.8 °F 66% 30.04 in 10.0 mi SW 4.6 mph - N/A   Clear
5:55 AM 44.6 °F 42.2 °F 33.8 °F 66% 30.05 in 10.0 mi WSW 4.6 mph - N/A   Clear
6:15 AM 44.6 °F 42.2 °F 33.8 °F 66% 30.05 in 10.0 mi SW 4.6 mph - N/A   Clear
6:35 AM 44.6 °F 42.2 °F 32.0 °F 61% 30.05 in 10.0 mi SW 4.6 mph - N/A   Clear
6:51 AM 46.4 °F 44.3 °F 32.0 °F 57% 30.05 in 10.0 mi WSW 4.6 mph - N/A   Partly Cloudy
7:48 AM 46.4 °F 44.3 °F 32.0 °F 57% 30.05 in 10.0 mi SW 4.6 mph - N/A   Partly Cloudy
8:53 AM 50.0 °F - 33.8 °F 54% 30.06 in 10.0 mi Calm Calm - N/A   Clear
9:48 AM 55.4 °F - 35.6 °F 47% 30.05 in 10.0 mi South 5.8 mph - N/A   Partly Cloudy
10:47 AM 60.8 °F - 35.6 °F 39% 30.06 in 10.0 mi Calm Calm - N/A   Partly Cloudy
11:53 AM 64.4 °F - 35.6 °F 34% 30.05 in 10.0 mi Calm Calm - N/A   Partly Cloudy
12:45 PM 66.2 °F - 37.4 °F 35% 30.02 in 10.0 mi ESE 4.6 mph - N/A   Partly Cloudy
1:50 PM 69.8 °F - 37.4 °F 31% 29.99 in 10.0 mi South 4.6 mph - N/A   Partly Cloudy
2:58 PM 71.6 °F - 33.8 °F 25% 29.96 in 10.0 mi SW 9.2 mph - N/A   Partly Cloudy
3:50 PM 71.6 °F - 37.4 °F 29% 29.96 in 10.0 mi WSW 10.4 mph - N/A   Partly Cloudy
4:50 PM 71.6 °F - 37.4 °F 29% 29.94 in 10.0 mi WSW 4.6 mph - N/A   Partly Cloudy
6:45 PM 60.8 °F - 41.0 °F 48% 29.95 in 10.0 mi Calm Calm - N/A   Scattered Clouds
7:45 PM 59.0 °F - 39.2 °F 48% 29.95 in 10.0 mi SE 3.5 mph - N/A   Scattered Clouds
8:45 PM 59.0 °F - 37.4 °F 45% 29.95 in 10.0 mi SSW 3.5 mph - N/A   Partly Cloudy
9:15 PM 60.8 °F - 37.4 °F 42% 29.96 in 10.0 mi SW 4.6 mph - N/A   Scattered Clouds
9:35 PM 60.8 °F - 37.4 °F 42% 29.96 in 10.0 mi WSW 3.5 mph - N/A   Clear
9:55 PM 59.0 °F - 39.2 °F 48% 29.96 in 10.0 mi SW 3.5 mph - N/A   Clear
10:15 PM 60.8 °F - 39.2 °F 45% 29.96 in 10.0 mi SW 4.6 mph - N/A   Clear
10:35 PM 59.0 °F - 39.2 °F 48% 29.96 in 10.0 mi WSW 4.6 mph - N/A   Clear
10:55 PM 60.8 °F - 39.2 °F 45% 29.96 in 10.0 mi WSW 4.6 mph - N/A   Clear
11:15 PM 59.0 °F - 39.2 °F 48% 29.96 in 10.0 mi SW 4.6 mph - N/A   Clear
11:35 PM 59.0 °F - 39.2 °F 48% 29.96 in 10.0 mi WSW 4.6 mph - N/A   Clear
11:55 PM 59.0 °F - 39.2 °F 48% 29.96 in 10.0 mi WSW 4.6 mph - N/A   Clear